Location: Unspecified
(0.0000°N, 0.0000°E)
Time: 12:07:08
(UTC+00:00)

LightSail 2 - Pass Details

Date: 03 December 2019
Orbit: 696 x 729 km, 24.0° (Epoch: 10 December)

Event Time Altitude Azimuth Distance (km) Brightness Sun altitude
Exits shadow 03:25:37 18° 176° (S) 1,682 7.3 -33.0°
Drops below altitude 10° 03:27:49 10° 153° (SSE) 2,174 8.2 -32.5°
Sets 03:30:48 0° 138° (SE) 3,101 9.4 -31.8°
